Location: Donzy-le-Pr�
(47.3659°N, 3.1107°E)
Time: 11:28:07
(UTC+00:00)

Lacrosse 4 Rocket - Pass Details

Date: 03 March 2021
Orbit: 537 x 620 km, 68.0° (Epoch: 22 April)

Event Time Altitude Azimuth Distance (km) Brightness Sun altitude
Rises 19:09:52 0° 181° (S) 2,814 4.9 -16.7°
Reaches altitude 10° 19:12:17 10° 170° (S) 1,932 3.9 -17.1°
Enters shadow 19:14:15 21° 149° (SSE) 1,350 2.9 -17.4°
